CW8553 Weather Reports


Display with metric or nautical units.
time (UTC)temp
F
wind
direction
speed
MPH
gust
MPH
rain 1hr
in
rain 24hr
in
rain mn
in
humidity
%
barometer
mb
20260509174536 60 0 0.0 0.0 0.00 0.00 0.00 76 1021.1
20260509173044 59 0 0.0 0.0 0.00 0.00 0.00 79 1021.3
20260509171538 59 0 0.0 0.0 0.00 0.00 0.00 79 1021.4
20260509170045 58 0 0.0 0.0 0.00 0.00 0.00 80 1021.3
20260509164542 57 0 0.0 0.0 0.00 0.00 0.00 81 1021.5
20260509163035 58 0 0.0 0.0 0.00 0.00 0.00 81 1021.6
20260509161537 57 0 0.0 0.0 0.00 0.00 0.00 82 1021.7
20260509160039 57 0 0.0 0.0 0.00 0.00 0.00 83 1021.8
20260509154543 57 0 0.0 0.0 0.00 0.00 0.00 83 1021.9
20260509153045 57 0 0.0 0.0 0.00 0.00 0.00 84 1021.9
20260509151537 55 0 0.0 0.0 0.00 0.00 0.00 88 1021.9
20260509150035 53 0 0.0 0.0 0.00 0.00 0.00 94 1022.2
20260509144535 51 0 0.0 0.0 0.00 0.00 0.00 95 1022.3
20260509143038 50 0 0.0 0.0 0.00 0.00 0.00 95 1022.1
20260509141537 48 0 0.0 0.0 0.00 0.00 0.00 94 1022.4
20260509140044 47 0 0.0 0.0 0.00 0.00 0.00 94 1022.3
20260509134538 46 0 0.0 0.0 0.00 0.00 0.00 93 1022.3
20260509133035 46 0 0.0 0.0 0.00 0.00 0.00 92 1022.4
20260509131543 46 0 0.0 0.0 0.00 0.00 0.00 92 1022.5
20260509130037 46 0 0.0 0.0 0.00 0.00 0.00 92 1022.3
20260509124537 46 0 0.0 0.0 0.00 0.00 0.00 92 1022.3
20260509123038 46 0 0.0 0.0 0.00 0.00 0.00 92 1022.3
20260509121541 47 0 0.0 0.0 0.00 0.00 0.00 90 1022.4
20260509120043 47 0 0.0 0.0 0.00 0.00 0.00 90 1022.4
20260509114537 48 0 0.0 0.0 0.00 0.00 0.00 90 1022.5
20260509113039 48 0 0.0 0.0 0.00 0.00 0.00 90 1022.6
20260509111535 49 0 0.0 0.0 0.00 0.00 0.00 89 1022.6
20260509110043 50 0 0.0 0.0 0.00 0.00 0.00 89 1022.7
20260509104538 50 0 0.0 0.0 0.00 0.00 0.00 88 1022.7
20260509103038 51 0 0.0 0.0 0.00 0.00 0.00 88 1022.7
20260509101545 52 0 0.0 0.0 0.00 0.00 0.00 88 1022.8
20260509100043 52 0 0.0 0.0 0.00 0.00 0.00 88 1022.8
20260509094539 52 0 0.0 0.0 0.00 0.00 0.00 87 1022.9
20260509093038 52 0 0.0 0.0 0.00 0.00 0.00 87 1023.0
20260509091537 52 0 0.0 0.0 0.00 0.00 0.00 87 1023.1
20260509090042 52 0 0.0 0.0 0.00 0.00 0.00 87 1023.2
20260509084544 53 0 0.0 0.0 0.00 0.00 0.00 87 1023.2
20260509083039 53 0 0.0 0.0 0.00 0.00 0.00 87 1023.2
20260509081538 53 0 0.0 0.0 0.00 0.00 0.00 86 1023.2
20260509080045 53 0 0.0 0.0 0.00 0.00 0.00 87 1023.2
20260509074541 53 0 0.0 0.0 0.00 0.00 0.00 87 1023.1
20260509073112 52 0 0.0 0.0 0.00 0.00 0.00 87 1023.2
20260509071539 52 0 0.0 0.0 0.00 0.00 0.00 88 1023.1
20260509070044 51 0 0.0 0.0 0.00 0.00 0.00 87 1023.0
20260509064538 51 0 0.0 0.0 0.00 0.00 0.00 88 1022.9
20260509063037 51 0 0.0 0.0 0.00 0.00 0.00 86 1022.9
20260509061536 51 0 0.0 0.0 0.00 0.00 0.00 84 1022.7
20260509060047 52 0 0.0 0.0 0.00 0.00 0.00 83 1022.7
20260509054542 52 0 0.0 0.0 0.00 0.00 0.00 82 1022.7
20260509053038 53 0 0.0 0.0 0.00 0.00 0.00 81 1022.7
20260509051538 53 0 0.0 0.0 0.00 0.00 0.00 81 1022.7
20260509050037 54 0 0.0 0.0 0.00 0.00 0.00 80 1022.7
20260509044539 54 0 0.0 0.0 0.00 0.00 0.00 78 1022.6
20260509043041 54 0 0.0 0.0 0.00 0.00 0.00 77 1022.4
20260509041538 55 0 0.0 0.0 0.00 0.00 0.00 76 1022.4
20260509040050 55 0 0.0 0.0 0.00 0.00 0.00 75 1022.2
20260509034547 56 0 0.0 0.0 0.00 0.00 0.00 74 1022.1
20260509033039 56 0 0.0 0.0 0.00 0.00 0.00 73 1021.9
20260509031540 57 0 0.0 0.0 0.00 0.00 0.00 71 1021.7
20260509030041 58 0 0.0 0.0 0.00 0.00 0.00 70 1021.6
20260509024536 58 0 0.0 0.0 0.00 0.00 0.00 68 1021.5
20260509023041 59 0 0.0 0.0 0.00 0.00 0.00 67 1021.5
20260509021539 59 0 0.0 0.0 0.00 0.00 0.00 66 1021.5
20260509020040 60 0 0.0 0.0 0.00 0.00 0.00 65 1021.5
20260509014540 60 0 0.0 0.0 0.00 0.00 0.00 64 1021.6
20260509013041 59 0 0.0 0.0 0.00 0.00 0.00 63 1021.5
20260509011554 59 0 0.0 0.0 0.00 0.00 0.00 64 1021.5
20260509010046 60 0 0.0 0.0 0.00 0.00 0.00 62 1021.6
20260509004551 60 0 0.0 0.0 0.00 0.00 0.00 62 1021.7
20260509003040 60 0 0.0 0.0 0.00 0.00 0.00 61 1021.7
20260509001538 60 0 0.0 0.0 0.00 0.00 0.00 61 1021.7
20260509000038 60 0 0.0 0.0 0.00 0.00 0.00 60 1021.6
20260508234535 62 0 0.0 0.0 0.00 0.00 0.00 57 1021.5
20260508233041 62 0 0.0 0.0 0.00 0.00 0.00 57 1021.4
20260508231539 62 0 0.0 0.0 0.00 0.00 0.00 58 1021.4
20260508230038 62 0 0.0 0.0 0.00 0.00 0.00 57 1021.4
20260508224537 63 0 0.0 0.0 0.00 0.00 0.00 56 1021.5
20260508223043 62 0 0.0 0.0 0.00 0.00 0.00 56 1021.6
20260508221542 62 0 0.0 0.0 0.00 0.00 0.00 58 1021.5
20260508220040 63 0 0.0 0.0 0.00 0.00 0.00 57 1021.5
20260508214543 63 0 0.0 0.0 0.00 0.00 0.00 55 1021.5
20260508213038 63 0 0.0 0.0 0.00 0.00 0.00 57 1021.6
20260508211537 60 0 0.0 0.0 0.00 0.00 0.00 61 1021.5
20260508210036 60 0 0.0 0.0 0.00 0.00 0.00 61 1021.4
20260508204544 58 0 0.0 0.0 0.00 0.00 0.00 61 1021.4
20260508203038 59 0 0.0 0.0 0.00 0.00 0.00 61 1021.3
20260508201539 58 0 0.0 0.0 0.00 0.00 0.00 66 1021.1
20260508200038 57 0 0.0 0.0 0.00 0.00 0.00 65 1021.3
20260508194541 56 0 0.0 0.0 0.00 0.00 0.00 65 1021.2
20260508193052 56 0 0.0 0.0 0.00 0.00 0.00 68 1021.1
20260508191540 56 0 0.0 0.0 0.00 0.00 0.00 68 1021.1
20260508190037 55 0 0.0 0.0 0.00 0.00 0.00 69 1021.1
20260508184538 54 0 0.0 0.0 0.00 0.00 0.00 70 1021.2
20260508183038 54 0 0.0 0.0 0.00 0.00 0.00 71 1021.1
20260508181549 54 0 0.0 0.0 0.00 0.00 0.00 71 1020.9
20260508180041 54 0 0.0 0.0 0.00 0.00 0.00 72 1020.6